{"data":{"norad_id":65088,"intl_designator":"2025-167L","name":"STARLINK-34594","alt_names":[],"object_type":"PAYLOAD","status":"ACTIVE","operator":null,"country":"US","launch_date":"2025-08-04","launch_site_code":"AFETR","launch_vehicle":null,"mission":null,"orbit_class":"UNKNOWN","rcs_meters":null,"size_class":null,"mass_kg":null,"dimensions":null,"purposes":["comms"],"wikipedia_slug":null,"has_3d_model":false,"image_url":null,"decayed_at":null,"tle_current":{"epoch":"2026-09-20T10:42:22.882752Z","epoch_age_seconds":125598,"freshness":"FRESH","line1":"1 65088U 25167L   26263.44609818  .00020748  00000+0  62288-3 0  9996","line2":"2 65088  53.1588 201.6326 0001834 293.7280  66.3530 15.34431682 63308","mean_motion":15.34431682,"eccentricity":0.0001834,"inclination_deg":53.1588,"raan_deg":201.6326,"arg_perigee_deg":293.728,"mean_anomaly_deg":66.353,"bstar":0.00062288,"rev_number":6330,"period_min":93.845820370646,"perigee_km":461.35448341627,"apogee_km":463.86366907704,"semimajor_km":6840.7460762467,"source":"CELESTRAK","updated_at":"2026-09-21T09:00:35.522919Z"}}}